"startDT [UTC]","vpos","CH4 [ppm]","stdev(CH4) [ppm]","CO2 [ppm]","stdev(CO2) [ppm]","H2O [ppm]","stdev(H2O)","p_LGR [torr]","T_LGR [C]","mt1_LGR [us]","mt2_LGR [us]","T_ECpre [C]","T_EC1 [C]","T_EC2 [C]","p_inlet [hPa]","p_in [hPa]","p_out [hPa]","T_inlet [C]","RH_inlet [%]","dwpt_inlet [C]","T_vent [C]","RH_vent [%]","dwpt_vent [C]","flow_vent [l min-1]","flow_inlet [l min-1]","dwpt_sample [C]","T_room [C]"
2012-09-12 00:00:00,0.0,1.9309,0.0008,391.40,0.32,191.8,30.1,138.03,31.64,24.65,36.51,0.94,15.81,-26.43,-48,37,-936,24.7,18.2,-1.0,25.1,1.6,-29.8,5.73,2.52,-28.0,31.2
2012-09-12 00:01:00,0.0,1.9310,0.0011,391.38,0.32,188.9,31.6,138.03,31.65,24.66,36.51,0.93,15.91,-26.43,-48,37,-935,24.7,18.0,-1.2,25.1,1.6,-29.9,5.73,2.52,-28.0,31.1
2012-09-12 00:02:00,0.0,1.9312,0.0009,391.42,0.34,176.0,35.0,138.03,31.65,24.65,36.51,0.93,16.01,-26.42,-48,37,-935,24.7,18.2,-1.1,25.1,1.6,-29.8,5.73,2.53,-28.1,31.1
2012-09-12 00:03:00,0.0,1.9313,0.0009,391.45,0.31,186.7,34.5,138.03,31.65,24.65,36.50,0.92,16.10,-26.42,-48,37,-936,24.7,18.2,-1.1,25.1,1.6,-29.9,5.73,2.53,-28.0,31.1
2012-09-12 00:04:00,0.0,1.9308,0.0010,391.44,0.33,195.5,32.7,138.03,31.65,24.66,36.51,0.92,16.19,-26.41,-48,37,-936,24.7,18.1,-1.1,25.1,1.6,-29.9,5.73,2.52,-28.0,31.1
2012-09-12 00:05:00,0.0,1.9308,0.0010,391.44,0.31,186.3,38.5,138.03,31.65,24.65,36.51,0.93,16.26,-26.41,-48,37,-936,24.7,17.6,-1.5,25.1,1.6,-29.8,5.73,2.51,-28.0,31.1
2012-09-12 00:06:00,0.0,1.9297,0.0010,391.36,0.28,188.2,30.3,138.03,31.65,24.66,36.51,0.90,16.34,-26.41,-48,37,-935,24.7,17.7,-1.5,25.1,1.6,-29.9,5.73,2.51,-28.0,31.2
2012-09-12 00:07:00,0.0,1.9295,0.0009,391.29,0.28,193.3,31.9,138.03,31.65,24.65,36.51,0.94,16.42,-26.40,-48,37,-935,24.7,17.7,-1.5,25.1,1.6,-29.9,5.73,2.51,-28.0,31.2
2012-09-12 00:08:00,0.0,1.9296,0.0011,391.34,0.32,196.4,38.8,138.03,31.66,24.65,36.51,0.93,16.49,-26.40,-48,37,-936,24.7,17.6,-1.5,25.1,1.6,-29.9,5.73,2.52,-28.0,31.2
2012-09-12 00:09:00,0.0,1.9301,0.0012,391.33,0.30,199.5,41.2,138.03,31.66,24.65,36.51,0.92,16.57,-26.40,-48,37,-936,24.7,17.5,-1.6,25.1,1.6,-29.9,5.73,2.52,-28.0,31.2
2012-09-12 00:10:00,0.0,1.9310,0.0011,391.38,0.36,192.7,32.0,138.03,31.66,24.65,36.51,0.92,16.63,-26.39,-48,37,-935,24.7,17.7,-1.4,25.1,1.6,-29.9,5.73,2.52,-28.0,31.2
2012-09-12 00:11:00,0.0,1.9319,0.0009,391.42,0.33,187.2,35.1,138.03,31.66,24.65,36.51,0.92,16.70,-26.39,-48,37,-935,24.7,17.9,-1.3,25.1,1.6,-29.9,5.73,2.52,-28.0,31.2
2012-09-12 00:12:00,0.0,1.9315,0.0011,391.54,0.29,190.4,27.9,138.03,31.66,24.65,36.50,0.93,16.76,-26.39,-48,37,-935,24.7,18.1,-1.2,25.1,1.6,-29.9,5.73,2.53,-28.0,31.2
2012-09-12 00:13:00,0.0,1.9312,0.0010,391.37,0.33,184.2,33.0,138.03,31.67,24.65,36.51,0.93,16.82,-26.39,-48,37,-936,24.7,17.9,-1.3,25.1,1.6,-29.9,5.73,2.52,-28.0,31.1
2012-09-12 00:14:00,0.0,1.9312,0.0011,391.47,0.37,188.0,33.8,138.03,31.67,24.65,36.51,0.93,16.87,-26.38,-48,37,-936,24.7,17.7,-1.5,25.1,1.6,-29.9,5.73,2.52,-28.0,31.1
2012-09-12 00:15:00,0.0,1.9312,0.0010,391.44,0.28,190.0,39.4,138.03,31.67,24.66,36.51,0.94,16.93,-26.38,-48,37,-935,24.7,18.0,-1.3,25.1,1.6,-29.9,5.73,2.52,-28.0,31.1
2012-09-12 00:16:00,0.0,1.9309,0.0011,391.44,0.31,189.9,31.2,138.03,31.67,24.65,36.51,0.94,16.98,-26.38,-48,37,-935,24.7,18.1,-1.1,25.1,1.6,-29.9,5.73,2.51,-28.0,31.0
2012-09-12 00:17:00,0.0,1.9306,0.0012,391.32,0.34,194.3,37.1,138.03,31.67,24.65,36.51,0.91,17.03,-26.38,-48,37,-935,24.7,17.6,-1.5,25.1,1.6,-29.9,5.73,2.52,-28.0,31.1
2012-09-12 00:18:00,0.0,1.9307,0.0011,391.42,0.26,189.8,38.6,138.03,31.68,24.65,36.51,0.93,17.08,-26.37,-48,37,-935,24.7,18.0,-1.3,25.1,1.6,-29.9,5.73,2.51,-27.9,31.1
2012-09-12 00:19:00,0.0,1.9313,0.0011,391.41,0.37,186.4,34.5,138.03,31.68,24.65,36.51,0.93,17.12,-26.38,-48,37,-936,24.7,18.1,-1.1,25.1,1.6,-29.9,5.73,2.52,-28.0,31.1
2012-09-12 00:20:00,0.0,1.9318,0.0011,391.44,0.35,190.3,35.3,138.03,31.68,24.65,36.50,0.91,17.16,-26.38,-48,37,-936,24.7,18.0,-1.2,25.1,1.6,-29.9,5.73,2.52,-28.0,31.2
2012-09-12 00:21:00,0.0,1.9326,0.0010,391.49,0.32,185.9,34.8,138.03,31.68,24.65,36.51,0.95,17.21,-26.38,-48,37,-936,24.7,17.8,-1.4,25.1,1.6,-29.9,5.73,2.53,-28.0,31.1
2012-09-12 00:22:00,0.0,1.9326,0.0010,391.43,0.35,191.9,37.0,138.03,31.68,24.65,36.51,0.92,17.25,-26.37,-48,37,-935,24.7,18.0,-1.3,25.1,1.6,-29.9,5.73,2.53,-28.0,31.2
2012-09-12 00:23:00,0.0,1.9329,0.0009,391.46,0.31,187.1,36.0,138.03,31.69,24.66,36.51,0.93,17.28,-26.37,-48,37,-935,24.7,18.1,-1.1,25.1,1.6,-29.9,5.73,2.53,-27.9,31.1
2012-09-12 00:24:00,0.0,1.9338,0.0010,391.48,0.28,196.1,36.2,138.03,31.69,24.65,36.51,0.93,17.32,-26.37,-48,37,-935,24.7,18.2,-1.1,25.1,1.6,-29.9,5.73,2.52,-28.0,31.2
2012-09-12 00:25:00,0.0,1.9325,0.0011,391.33,0.39,194.1,31.4,138.03,31.69,24.65,36.51,0.94,17.35,-26.37,-48,37,-935,24.7,18.1,-1.1,25.1,1.6,-29.9,5.73,2.51,-28.0,31.2
2012-09-12 00:26:00,0.0,1.9323,0.0011,391.44,0.40,195.5,33.9,138.03,31.69,24.65,36.51,0.93,17.38,-26.37,-48,37,-936,24.7,17.9,-1.3,25.1,1.6,-29.9,5.73,2.51,-28.0,31.2
2012-09-12 00:27:00,0.0,1.9311,0.0011,391.44,0.31,191.5,30.7,138.03,31.69,24.65,36.51,0.96,17.42,-26.37,-48,37,-936,24.7,17.6,-1.5,25.1,1.6,-29.9,5.73,2.51,-27.9,31.2
2012-09-12 00:28:00,0.0,1.9308,0.0009,391.42,0.28,194.6,28.3,138.03,31.70,24.65,36.51,0.93,17.45,-26.37,-48,37,-936,24.7,17.7,-1.5,25.1,1.6,-29.9,5.73,2.52,-27.9,31.2
2012-09-12 00:29:00,0.0,1.9313,0.0012,391.45,0.29,197.6,30.5,138.03,31.70,24.65,36.51,0.91,17.47,-26.37,-48,37,-936,24.7,17.7,-1.5,25.1,1.6,-29.9,5.73,2.52,-28.0,31.2
2012-09-12 00:30:00,0.0,1.9308,0.0011,391.43,0.31,191.9,30.2,138.03,31.70,24.66,36.51,0.93,17.50,-26.37,-48,37,-935,24.7,17.7,-1.5,25.1,1.6,-29.9,5.73,2.53,-28.0,31.2
2012-09-12 00:31:00,0.0,1.9317,0.0010,391.43,0.33,186.3,35.7,138.03,31.70,24.65,36.51,0.94,17.53,-26.36,-48,37,-935,24.7,17.9,-1.3,25.1,1.6,-29.9,5.73,2.53,-28.0,31.2
2012-09-12 00:32:00,0.0,1.9313,0.0010,391.55,0.36,189.2,30.7,138.03,31.70,24.66,36.50,0.94,17.56,-26.37,-48,37,-935,24.7,17.9,-1.3,25.1,1.6,-29.9,5.73,2.53,-27.9,31.2
2012-09-12 00:33:00,0.0,1.9316,0.0011,391.34,0.29,191.5,34.7,138.03,31.71,24.65,36.51,0.94,17.58,-26.37,-48,37,-935,24.7,17.8,-1.4,25.1,1.6,-29.9,5.73,2.53,-28.0,31.2
2012-09-12 00:34:00,0.0,1.9307,0.0010,391.42,0.27,195.2,33.8,138.03,31.71,24.65,36.51,0.94,17.61,-26.37,-48,37,-936,24.7,17.8,-1.4,25.0,1.6,-29.9,5.73,2.52,-28.0,31.2
2012-09-12 00:35:00,0.0,1.9300,0.0008,391.40,0.29,193.2,34.4,138.03,31.71,24.66,36.51,0.93,17.63,-26.37,-48,37,-936,24.7,17.7,-1.5,25.0,1.6,-29.9,5.73,2.51,-27.9,31.1
2012-09-12 00:36:00,0.0,1.9301,0.0009,391.46,0.32,200.2,32.4,138.03,31.71,24.66,36.51,0.93,17.65,-26.36,-48,37,-936,24.7,17.7,-1.5,25.0,1.6,-29.9,5.73,2.51,-28.0,31.2
2012-09-12 00:37:00,0.0,1.9310,0.0011,391.44,0.31,184.8,29.7,138.03,31.71,24.65,36.51,0.94,17.67,-26.37,-48,37,-936,24.7,17.7,-1.5,25.1,1.6,-29.9,5.73,2.51,-28.0,31.2
2012-09-12 00:38:00,0.0,1.9305,0.0009,391.50,0.35,188.7,33.3,138.03,31.71,24.66,36.51,0.93,17.69,-26.37,-48,37,-935,24.7,17.9,-1.3,25.1,1.6,-29.9,5.73,2.52,-28.0,31.2
2012-09-12 00:39:00,0.0,1.9308,0.0011,391.44,0.31,183.6,41.8,138.03,31.71,24.65,36.51,0.93,17.71,-26.37,-48,37,-935,24.7,18.1,-1.2,25.1,1.6,-29.9,5.73,2.53,-28.0,31.2
2012-09-12 00:40:00,0.0,1.9305,0.0009,391.37,0.32,187.7,33.6,138.03,31.71,24.65,36.51,0.93,17.73,-26.37,-48,37,-935,24.7,18.2,-1.1,25.1,1.6,-29.9,5.73,2.53,-28.0,31.2
2012-09-12 00:41:00,0.0,1.9302,0.0010,391.47,0.30,191.8,34.2,138.03,31.72,24.65,36.51,0.93,17.75,-26.36,-48,37,-935,24.7,17.9,-1.3,25.1,1.6,-29.9,5.73,2.53,-27.9,31.2
2012-09-12 00:42:00,0.0,1.9301,0.0010,391.49,0.31,187.2,32.2,138.03,31.72,24.65,36.51,0.93,17.76,-26.37,-48,37,-935,24.7,18.1,-1.2,25.1,1.6,-29.9,5.73,2.52,-28.0,31.2
2012-09-12 00:43:00,0.0,1.9302,0.0011,391.38,0.37,187.2,37.7,138.03,31.72,24.65,36.51,0.92,17.78,-26.36,-48,37,-936,24.7,18.2,-1.1,25.1,1.6,-29.9,5.73,2.52,-27.9,31.2
2012-09-12 00:44:00,0.0,1.9306,0.0012,391.40,0.26,195.6,29.7,138.03,31.72,24.65,36.51,0.94,17.80,-26.36,-48,37,-936,24.7,18.4,-0.9,25.1,1.6,-29.9,5.73,2.52,-28.0,31.2
2012-09-12 00:45:00,0.0,1.9311,0.0010,391.50,0.35,185.2,32.2,138.03,31.72,24.65,36.50,0.94,17.81,-26.36,-48,37,-935,24.7,17.9,-1.3,25.1,1.6,-29.9,5.73,2.52,-28.0,31.1
2012-09-12 00:46:00,0.0,1.9310,0.0010,391.53,0.38,195.9,31.0,138.03,31.72,24.66,36.50,0.93,17.83,-26.36,-48,37,-935,24.7,17.8,-1.4,25.1,1.6,-29.9,5.73,2.52,-28.0,31.1
2012-09-12 00:47:00,0.0,1.9306,0.0012,391.45,0.35,190.5,35.1,138.03,31.72,24.65,36.51,0.95,17.84,-26.36,-48,37,-935,24.7,18.1,-1.1,25.1,1.6,-29.9,5.73,2.51,-28.0,31.0
2012-09-12 00:48:00,0.0,1.9305,0.0009,391.37,0.31,198.4,36.5,138.03,31.72,24.66,36.51,1.11,17.35,-26.37,-48,37,-935,24.7,17.7,-1.4,25.1,1.6,-29.9,5.73,2.51,-28.0,31.1
2012-09-12 00:49:00,0.0,1.9311,0.0008,391.46,0.33,196.9,35.1,138.03,31.73,24.65,36.51,1.11,15.46,-26.38,-48,37,-935,24.7,18.0,-1.3,25.1,1.6,-29.9,5.73,2.52,-28.0,31.2
2012-09-12 00:50:00,0.0,1.9309,0.0011,391.56,0.36,192.2,34.6,138.03,31.73,24.66,36.50,0.96,13.17,-26.38,-48,37,-936,24.7,18.2,-1.1,25.1,1.6,-29.9,5.73,2.53,-28.0,31.2
2012-09-12 00:51:00,0.0,1.9313,0.0011,391.47,0.29,192.8,31.6,138.03,31.73,24.65,36.50,1.05,10.85,-26.38,-48,37,-936,24.7,18.1,-1.2,25.1,1.6,-29.9,5.73,2.53,-28.0,31.2
2012-09-12 00:52:00,0.0,1.9311,0.0009,391.56,0.33,195.4,24.8,138.03,31.73,24.65,36.50,1.06,8.59,-26.37,-48,37,-935,24.7,17.7,-1.5,25.1,1.6,-29.9,5.73,2.53,-28.0,31.2
2012-09-12 00:53:00,0.0,1.9312,0.0011,391.38,0.35,185.9,31.8,138.03,31.73,24.65,36.51,0.96,6.40,-26.36,-48,37,-935,24.7,17.8,-1.4,25.1,1.6,-29.9,5.73,2.52,-28.0,31.2
2012-09-12 00:54:00,0.0,1.9308,0.0011,391.45,0.32,195.2,34.0,138.03,31.74,24.65,36.50,1.04,4.32,-26.35,-48,37,-935,24.7,18.0,-1.2,25.1,1.6,-29.9,5.73,2.52,-28.0,31.2
2012-09-12 00:55:00,0.0,1.9299,0.0010,391.46,0.34,203.3,34.9,138.03,31.74,24.65,36.50,1.09,2.35,-26.33,-48,37,-936,24.7,17.7,-1.4,25.1,1.6,-29.9,5.73,2.51,-28.0,31.3
2012-09-12 00:56:00,0.0,1.9296,0.0009,391.49,0.32,193.5,38.2,138.03,31.75,24.66,36.51,0.98,0.46,-26.32,-48,37,-936,24.7,17.8,-1.4,25.1,1.6,-29.9,5.73,2.51,-28.0,31.3
2012-09-12 00:57:00,0.0,1.9306,0.0010,391.49,0.28,193.4,34.3,138.03,31.75,24.65,36.50,0.99,-1.31,-26.31,-48,37,-935,24.7,17.5,-1.6,25.1,1.6,-29.9,5.73,2.51,-28.0,31.3
2012-09-12 00:58:00,0.0,1.9309,0.0009,391.57,0.34,196.8,28.0,138.03,31.76,24.65,36.51,1.08,-2.98,-26.29,-48,37,-935,24.7,17.7,-1.4,25.1,1.6,-29.9,5.73,2.50,-27.9,31.4
2012-09-12 00:59:00,0.0,1.9311,0.0009,391.40,0.30,200.4,31.1,138.02,31.76,24.66,36.51,1.03,-4.40,-26.28,-48,37,-935,24.7,17.7,-1.5,25.1,1.6,-29.9,5.73,2.51,-27.9,31.3
2012-09-12 01:00:00,0.0,1.9309,0.0010,391.54,0.34,197.6,39.1,138.02,31.76,24.65,36.50,0.96,-5.69,-26.27,-48,37,-936,24.7,17.6,-1.6,25.1,1.6,-29.9,5.73,2.51,-27.9,31.3
2012-09-12 01:01:00,0.0,1.9310,0.0010,391.45,0.36,199.6,30.8,138.02,31.77,24.65,36.51,1.04,-6.02,-26.26,-48,37,-936,24.7,17.9,-1.3,25.1,1.6,-29.7,5.73,2.51,-27.9,31.3
2012-09-12 01:02:00,0.0,1.9305,0.0010,391.43,0.31,193.8,30.9,138.02,31.77,24.65,36.51,1.05,-7.84,-26.25,-48,37,-935,24.7,17.9,-1.3,25.1,1.6,-29.7,5.73,2.52,-27.9,31.4
2012-09-12 01:03:00,0.0,1.9305,0.0007,391.43,0.33,187.5,35.9,138.02,31.78,24.65,36.51,0.99,-9.17,-26.25,-47,37,-935,24.6,17.7,-1.5,25.0,1.6,-29.8,5.73,2.52,-28.0,31.4
2012-09-12 01:04:00,0.0,1.9304,0.0009,391.50,0.33,190.2,31.6,138.02,31.78,24.65,36.51,0.99,-10.38,-26.24,-48,37,-935,24.5,17.8,-1.5,25.0,1.6,-29.8,5.73,2.52,-28.1,31.4
2012-09-12 01:05:00,0.0,1.9305,0.0010,391.49,0.28,181.4,35.3,138.03,31.79,24.65,36.51,1.06,-11.49,-26.25,-48,37,-936,24.4,18.1,-1.4,24.9,1.6,-29.9,5.73,2.52,-28.1,31.3
2012-09-12 01:06:00,0.0,1.9308,0.0010,391.56,0.29,182.5,29.3,138.03,31.79,24.65,36.51,1.02,-12.53,-26.25,-47,37,-935,24.3,18.0,-1.5,24.8,1.6,-29.9,5.73,2.51,-28.2,31.3
2012-09-12 01:07:00,0.0,1.9308,0.0011,391.45,0.34,182.3,39.2,138.03,31.79,24.65,36.51,0.96,-13.56,-26.25,-48,38,-935,24.2,18.2,-1.4,24.7,1.6,-29.9,5.73,2.51,-28.2,31.3
2012-09-12 01:08:00,0.0,1.9306,0.0011,391.48,0.32,174.0,34.9,138.03,31.79,24.66,36.51,1.02,-14.46,-26.26,-48,38,-935,24.2,18.4,-1.3,24.7,1.6,-30.0,5.73,2.53,-28.2,31.2
2012-09-12 01:09:00,0.0,1.9315,0.0009,391.48,0.37,178.8,31.9,138.03,31.79,24.65,36.51,1.05,-15.31,-26.26,-48,38,-935,24.1,18.6,-1.3,24.6,1.6,-30.0,5.73,2.53,-28.2,31.1
2012-09-12 01:10:00,0.0,1.9313,0.0009,391.46,0.32,184.4,38.5,138.03,31.79,24.66,36.51,1.01,-16.10,-26.27,-48,38,-935,24.0,18.5,-1.4,24.6,1.6,-30.0,5.73,2.53,-28.2,31.1
2012-09-12 01:11:00,0.0,1.9308,0.0009,391.50,0.33,175.1,31.8,138.03,31.80,24.66,36.51,0.95,-16.84,-26.28,-48,38,-935,24.0,18.5,-1.4,24.5,1.6,-30.0,5.73,2.53,-28.2,31.0
2012-09-12 01:12:00,0.0,1.9307,0.0010,391.42,0.40,181.2,31.2,138.03,31.80,24.65,36.51,0.98,-17.54,-26.29,-48,38,-935,23.9,18.6,-1.4,24.5,1.6,-30.1,5.73,2.51,-28.2,31.0
2012-09-12 01:13:00,0.0,1.9304,0.0010,391.51,0.32,178.9,32.6,138.03,31.80,24.65,36.51,1.06,-18.24,-26.30,-47,38,-935,23.8,18.7,-1.4,24.4,1.6,-30.1,5.73,2.52,-28.2,30.9
2012-09-12 01:14:00,0.0,1.9306,0.0009,391.46,0.32,163.9,33.2,138.03,31.80,24.65,36.51,1.04,-18.89,-26.31,-47,38,-935,23.7,18.9,-1.3,24.3,1.6,-30.2,5.73,2.53,-28.3,30.8
2012-09-12 01:15:00,0.0,1.9307,0.0010,391.43,0.32,164.0,34.0,138.03,31.80,24.65,36.50,0.96,-19.53,-26.32,-47,38,-935,23.7,19.0,-1.3,24.3,1.6,-30.2,5.73,2.54,-28.3,30.7
2012-09-12 01:16:00,0.0,1.9305,0.0010,391.50,0.34,172.1,35.2,138.03,31.80,24.66,36.51,0.99,-20.13,-26.34,-47,38,-935,23.6,19.0,-1.4,24.2,1.6,-30.2,5.73,2.54,-28.3,30.6
2012-09-12 01:17:00,0.0,1.9310,0.0010,391.51,0.39,169.5,33.3,138.03,31.80,24.65,36.51,1.05,-20.68,-26.35,-47,38,-935,23.6,19.1,-1.3,24.2,1.7,-29.8,5.73,2.52,-28.4,30.5
2012-09-12 01:18:00,0.0,1.9311,0.0013,391.44,0.39,161.2,32.0,138.03,31.81,24.65,36.51,1.03,-21.21,-26.36,-47,38,-934,23.5,19.0,-1.5,24.1,1.7,-29.8,5.73,2.53,-28.4,30.4
2012-09-12 01:19:00,0.0,1.9304,0.0010,391.51,0.30,165.7,32.1,138.03,31.81,24.65,36.51,0.95,-21.71,-26.37,-47,38,-935,23.5,19.0,-1.4,24.1,1.7,-29.7,5.73,2.53,-28.4,30.4
2012-09-12 01:20:00,0.0,1.9309,0.0009,391.50,0.37,163.3,36.4,138.03,31.81,24.65,36.51,0.97,-22.18,-26.39,-47,39,-934,23.5,19.4,-1.2,24.1,1.7,-29.8,5.73,2.54,-28.4,30.3
2012-09-12 01:21:00,0.0,1.9309,0.0013,391.55,0.34,173.2,32.2,138.03,31.81,24.65,36.50,1.03,-22.62,-26.40,-47,39,-934,23.5,19.5,-1.2,24.0,1.7,-29.8,5.73,2.56,-28.4,30.3
2012-09-12 01:22:00,0.0,1.9310,0.0010,391.51,0.29,162.6,28.1,138.03,31.81,24.65,36.51,1.05,-23.03,-26.42,-47,39,-935,23.4,19.5,-1.1,24.0,1.7,-29.8,5.73,2.54,-28.4,30.2
2012-09-12 01:23:00,0.0,1.9312,0.0010,391.54,0.30,164.8,34.8,138.03,31.81,24.65,36.50,0.97,-23.42,-26.43,-47,39,-935,23.4,19.2,-1.4,24.0,1.7,-29.8,5.73,2.53,-28.4,30.2
2012-09-12 01:24:00,0.0,1.9308,0.0009,391.45,0.38,166.2,37.6,138.03,31.81,24.66,36.51,0.96,-23.79,-26.44,-47,39,-934,23.3,19.1,-1.5,23.9,1.7,-29.8,5.73,2.52,-28.4,30.2
2012-09-12 01:25:00,0.0,1.9311,0.0010,391.37,0.38,178.9,32.7,138.03,31.81,24.66,36.52,1.02,-24.15,-26.45,-47,39,-934,23.3,19.3,-1.4,23.9,1.7,-29.9,5.73,2.52,-28.4,30.1
2012-09-12 01:26:00,0.0,1.9314,0.0010,391.40,0.30,178.4,33.0,138.03,31.81,24.65,36.51,1.06,-24.48,-26.47,-47,39,-934,23.3,19.4,-1.4,23.9,1.7,-29.8,5.73,2.53,-28.4,30.1
2012-09-12 01:27:00,0.0,1.9310,0.0010,391.41,0.32,174.0,37.0,138.03,31.81,24.66,36.51,0.98,-24.80,-26.48,-47,39,-934,23.3,19.4,-1.4,23.9,1.7,-29.9,5.73,2.54,-28.4,30.1
2012-09-12 01:28:00,0.0,1.9316,0.0009,391.63,0.34,174.1,32.9,138.03,31.82,24.65,36.50,0.95,-25.10,-26.49,-47,39,-934,23.2,19.5,-1.3,23.8,1.7,-29.9,5.73,2.54,-28.4,30.0
2012-09-12 01:29:00,0.0,1.9314,0.0011,391.52,0.39,166.7,32.7,138.03,31.82,24.66,36.51,1.00,-25.37,-26.50,-47,39,-934,23.2,19.7,-1.2,23.8,1.7,-29.9,5.73,2.54,-28.4,29.9
2012-09-12 01:30:00,0.0,1.9315,0.0010,391.55,0.35,159.6,34.4,138.03,31.82,24.65,36.51,1.05,-25.64,-26.52,-46,39,-934,23.2,19.8,-1.1,23.8,1.7,-29.9,5.73,2.54,-28.4,29.9
2012-09-12 01:31:00,0.0,1.9306,0.0011,391.50,0.38,166.8,33.6,138.03,31.83,24.66,36.51,1.02,-25.89,-26.53,-47,39,-934,23.1,19.8,-1.2,23.8,1.7,-30.0,5.73,2.53,-28.5,29.8
2012-09-12 01:32:00,0.0,1.9307,0.0010,391.47,0.32,161.8,31.9,138.03,31.83,24.66,36.50,0.96,-26.12,-26.54,-47,39,-934,23.1,19.9,-1.1,23.7,1.7,-30.0,5.73,2.52,-28.5,29.7
2012-09-12 01:33:00,0.0,1.9312,0.0010,391.51,0.28,160.8,34.8,138.03,31.83,24.65,36.51,0.97,-26.34,-26.55,-47,39,-933,23.1,19.7,-1.3,23.7,1.7,-30.0,5.73,2.53,-28.5,29.6
2012-09-12 01:34:00,0.0,1.9316,0.0010,391.49,0.33,165.2,29.5,138.03,31.83,24.65,36.52,0.92,-26.47,-26.55,-46,39,-934,23.0,19.9,-1.2,23.7,1.7,-30.0,5.73,2.55,-28.5,29.6
2012-09-12 01:35:00,0.0,1.9317,0.0009,391.51,0.32,172.9,31.1,138.03,31.83,24.65,36.51,1.02,-26.21,-26.56,-46,39,-934,23.0,20.3,-0.9,23.6,1.8,-29.9,5.73,2.55,-28.6,29.6
2012-09-12 01:36:00,0.0,1.9312,0.0011,391.48,0.35,161.0,33.5,138.03,31.82,24.65,36.51,1.07,-26.31,-26.57,-46,39,-934,23.0,20.2,-1.1,23.6,1.8,-29.9,5.73,2.54,-28.6,29.6
2012-09-12 01:37:00,0.0,1.9310,0.0010,391.56,0.32,165.3,30.4,138.03,31.83,24.65,36.50,1.00,-26.49,-26.58,-46,39,-933,23.0,20.3,-1.0,23.5,1.7,-30.0,5.73,2.53,-28.6,29.6
2012-09-12 01:38:00,0.0,1.9313,0.0010,391.39,0.33,164.2,31.2,138.03,31.83,24.65,36.52,0.94,-26.35,-26.58,-46,39,-933,23.0,20.4,-0.9,23.5,1.8,-29.9,5.73,2.53,-28.5,29.7
2012-09-12 01:39:00,0.0,1.9311,0.0012,391.49,0.27,166.3,30.2,138.03,31.83,24.65,36.50,0.95,-26.26,-26.59,-46,39,-934,23.0,20.4,-1.0,23.6,1.8,-29.9,5.73,2.53,-28.5,29.6
2012-09-12 01:40:00,0.0,1.9310,0.0010,391.51,0.32,165.0,33.8,138.03,31.83,24.65,36.51,0.98,-26.42,-26.60,-46,39,-934,22.9,20.3,-1.0,23.5,1.8,-29.9,5.73,2.54,-28.5,29.6
2012-09-12 01:41:00,0.0,1.9306,0.0010,391.41,0.34,167.9,29.8,138.03,31.83,24.65,36.51,0.93,-26.53,-26.61,-46,39,-934,22.9,19.9,-1.3,23.5,1.8,-29.9,5.73,2.54,-28.5,29.6
2012-09-12 01:42:00,0.0,1.9313,0.0011,391.43,0.36,161.5,31.1,138.03,31.83,24.66,36.51,1.02,-26.27,-26.62,-46,39,-934,22.9,20.0,-1.3,23.5,1.8,-29.9,5.73,2.54,-28.5,29.6
2012-09-12 01:43:00,0.0,1.9318,0.0011,391.50,0.35,170.1,33.2,138.03,31.83,24.65,36.51,1.07,-26.36,-26.63,-46,39,-934,22.9,20.0,-1.3,23.5,1.8,-29.9,5.73,2.54,-28.5,29.5
2012-09-12 01:44:00,0.0,1.9320,0.0009,391.53,0.32,167.1,31.0,138.03,31.83,24.66,36.50,0.99,-26.54,-26.64,-46,40,-934,22.9,20.4,-1.0,23.5,1.8,-29.9,5.73,2.54,-28.6,29.5
2012-09-12 01:45:00,0.0,1.9321,0.0012,391.52,0.31,162.6,34.1,138.03,31.84,24.65,36.50,0.98,-26.42,-26.64,-46,39,-934,22.9,20.6,-0.9,23.5,1.7,-30.0,5.73,2.53,-28.5,29.4
2012-09-12 01:46:00,0.0,1.9307,0.0009,391.43,0.35,172.0,31.1,138.03,31.84,24.65,36.51,0.95,-26.31,-26.65,-46,39,-934,22.9,19.9,-1.3,23.5,1.8,-29.9,5.73,2.53,-28.5,29.4
2012-09-12 01:47:00,0.0,1.9303,0.0013,391.51,0.28,168.5,35.4,138.03,31.84,24.66,36.51,0.89,-26.48,-26.29,-46,40,-934,22.9,20.2,-1.2,23.5,1.8,-30.0,5.73,2.52,-28.5,29.4
2012-09-12 01:48:00,0.0,1.9298,0.0009,391.37,0.28,165.2,34.2,138.03,31.84,24.65,36.51,0.96,-26.66,-24.67,-46,40,-934,22.9,20.1,-1.2,23.5,1.8,-30.0,5.73,2.53,-28.5,29.4
2012-09-12 01:49:00,0.0,1.9301,0.0010,391.25,0.32,185.9,36.0,138.03,31.84,24.65,36.51,0.89,-26.77,-22.71,-46,40,-933,22.9,19.8,-1.4,23.4,1.7,-30.1,5.73,2.53,-28.2,29.4
2012-09-12 01:50:00,0.0,1.9306,0.0009,391.50,0.26,204.2,29.7,138.03,31.84,24.65,36.51,0.80,-26.83,-20.76,-46,40,-934,22.9,20.0,-1.3,23.4,1.8,-29.7,5.73,2.54,-27.8,29.5
2012-09-12 01:51:00,0.0,1.9312,0.0011,391.50,0.35,221.3,32.6,138.03,31.84,24.65,36.51,0.84,-26.85,-18.87,-46,40,-934,22.9,20.2,-1.1,23.4,1.9,-29.0,5.73,2.54,-27.5,29.5
2012-09-12 01:52:00,0.0,1.9320,0.0011,391.66,0.37,233.8,30.0,138.03,31.84,24.65,36.50,0.88,-26.85,-17.07,-46,40,-933,22.8,20.4,-1.0,23.4,2.0,-28.6,5.73,2.54,-27.3,29.5
2012-09-12 01:53:00,0.0,1.9320,0.0010,391.47,0.34,254.3,34.2,138.03,31.84,24.65,36.51,0.92,-26.84,-15.37,-46,40,-933,22.9,20.4,-1.0,23.4,2.1,-28.3,5.73,2.54,-27.2,29.5
2012-09-12 01:54:00,0.0,1.9315,0.0011,391.44,0.27,255.8,36.5,138.03,31.85,24.65,36.51,0.94,-26.83,-13.75,-46,40,-933,22.9,20.3,-1.1,23.4,2.1,-28.1,5.73,2.53,-27.1,29.5
2012-09-12 01:55:00,0.0,1.9311,0.0011,391.48,0.33,250.6,35.7,138.03,31.85,24.65,36.50,0.87,-26.80,-12.22,-46,40,-933,22.9,20.3,-1.1,23.4,2.1,-28.0,5.73,2.53,-27.1,29.5
2012-09-12 01:56:00,0.0,1.9301,0.0010,391.45,0.32,260.7,39.0,138.03,31.85,24.66,36.51,0.82,-26.78,-10.76,-46,40,-933,22.9,19.7,-1.5,23.4,2.1,-28.0,5.73,2.52,-27.1,29.5
2012-09-12 01:57:00,0.0,1.9300,0.0009,391.37,0.39,256.6,37.0,138.03,31.85,24.65,36.51,0.87,-26.76,-9.38,-46,40,-933,22.9,19.6,-1.6,23.4,2.1,-28.0,5.73,2.53,-27.1,29.6
2012-09-12 01:58:00,0.0,1.9303,0.0011,391.39,0.28,251.1,38.9,138.03,31.85,24.65,36.51,0.87,-26.74,-8.08,-46,39,-933,22.9,19.8,-1.4,23.4,2.1,-28.1,5.73,2.52,-27.1,29.6
2012-09-12 01:59:00,0.0,1.9301,0.0010,391.35,0.28,255.7,31.6,138.03,31.85,24.65,36.51,0.92,-26.71,-6.84,-46,39,-933,22.9,19.6,-1.5,23.4,2.1,-28.3,5.73,2.52,-27.1,29.6
2012-09-12 02:00:00,0.0,1.9304,0.0010,391.38,0.30,258.6,34.1,138.03,31.86,24.65,36.51,0.94,-26.69,-5.67,-46,39,-933,23.0,19.6,-1.4,23.4,2.1,-28.3,5.73,2.53,-27.1,29.6
2012-09-12 02:01:00,0.0,1.9305,0.0011,391.40,0.30,258.3,34.2,138.03,31.86,24.66,36.50,0.94,-26.67,-4.55,-46,39,-933,23.0,19.7,-1.3,23.5,2.0,-28.3,5.73,2.53,-27.1,29.7
2012-09-12 02:02:00,0.0,1.9312,0.0010,391.45,0.30,253.7,33.3,138.03,31.86,24.65,36.51,0.91,-26.64,-3.48,-46,39,-933,23.1,20.1,-1.0,23.5,2.0,-28.5,5.73,2.53,-27.1,29.7
2012-09-12 02:03:00,0.0,1.9316,0.0010,391.36,0.32,252.0,33.1,138.03,31.86,24.65,36.52,0.86,-26.62,-2.48,-46,39,-933,23.2,20.2,-0.9,23.6,2.0,-28.4,5.73,2.53,-27.1,29.7
2012-09-12 02:04:00,0.0,1.9317,0.0009,391.55,0.35,254.3,38.3,138.03,31.86,24.65,36.50,0.86,-26.60,-1.52,-46,39,-933,23.2,20.1,-0.9,23.6,2.0,-28.5,5.73,2.53,-27.1,29.8
2012-09-12 02:05:00,0.0,1.9318,0.0010,391.43,0.32,254.9,34.0,138.03,31.86,24.65,36.51,0.89,-26.57,-0.60,-46,39,-933,23.3,19.8,-1.1,23.6,2.0,-28.4,5.73,2.53,-27.1,29.8
2012-09-12 02:06:00,0.0,1.9327,0.0009,391.44,0.27,257.6,33.9,138.03,31.86,24.65,36.51,0.92,-26.55,0.27,-46,39,-933,23.4,19.4,-1.3,23.7,2.0,-28.5,5.73,2.52,-27.1,29.8
2012-09-12 02:07:00,0.0,1.9332,0.0013,391.44,0.33,260.2,32.3,138.03,31.87,24.65,36.51,0.92,-26.53,1.08,-46,39,-934,23.4,19.4,-1.2,23.7,2.0,-28.5,5.73,2.52,-27.1,29.9
2012-09-12 02:08:00,0.0,1.9330,0.0010,391.52,0.33,248.2,37.4,138.03,31.87,24.66,36.50,0.93,-26.51,1.85,-46,39,-933,23.5,19.6,-1.0,23.7,2.0,-28.6,5.73,2.52,-27.1,29.9
2012-09-12 02:09:00,0.0,1.9335,0.0009,391.58,0.27,249.6,31.6,138.03,31.86,24.65,36.51,0.94,-26.48,2.56,-46,39,-933,23.5,19.7,-1.0,23.8,2.0,-28.7,5.73,2.51,-27.2,29.9
2012-09-12 02:10:00,0.0,1.9329,0.0010,391.58,0.31,250.3,36.7,138.03,31.87,24.65,36.50,0.95,-26.46,3.05,-46,39,-933,23.6,19.4,-1.1,23.8,2.0,-28.6,5.73,2.51,-27.2,30.0
2012-09-12 02:11:00,0.0,1.9330,0.0008,391.67,0.29,246.0,34.1,138.03,31.87,24.66,36.50,0.93,-26.44,3.25,-46,39,-933,23.6,19.4,-1.1,23.9,1.9,-28.6,5.73,2.51,-27.2,30.0
2012-09-12 02:12:00,0.0,1.9334,0.0014,391.41,0.37,254.2,26.6,138.03,31.87,24.65,36.51,0.89,-26.42,3.44,-46,39,-933,23.7,19.3,-1.1,23.9,1.9,-28.7,5.73,2.51,-27.2,30.0
2012-09-12 02:13:00,0.0,1.9319,0.0011,391.44,0.38,251.3,35.4,138.03,31.88,24.66,36.51,0.87,-26.40,3.79,-46,39,-933,23.7,18.9,-1.4,23.9,1.9,-28.7,5.73,2.52,-27.2,30.1
2012-09-12 02:14:00,0.0,1.9334,0.0012,391.40,0.34,250.7,37.7,138.03,31.88,24.65,36.52,0.89,-26.39,4.33,-46,39,-933,23.8,19.0,-1.2,23.9,1.9,-28.7,5.73,2.52,-27.2,30.1
2012-09-12 02:15:00,0.0,1.9332,0.0012,391.54,0.30,249.9,34.0,138.03,31.88,24.65,36.50,0.88,-26.37,4.94,-46,39,-933,23.8,18.9,-1.3,24.0,1.9,-28.7,5.73,2.52,-27.2,30.1
2012-09-12 02:16:00,0.0,1.9327,0.0012,391.44,0.32,248.0,31.1,138.03,31.88,24.66,36.51,0.91,-26.35,5.52,-46,39,-934,23.9,18.7,-1.4,24.0,1.9,-28.8,5.73,2.53,-27.2,30.2
2012-09-12 02:17:00,0.0,1.9338,0.0010,391.44,0.35,249.3,32.6,138.03,31.88,24.65,36.51,0.92,-26.34,6.06,-46,39,-933,23.9,18.8,-1.3,24.1,1.9,-28.8,5.73,2.52,-27.2,30.2
2012-09-12 02:18:00,0.0,1.9343,0.0010,391.57,0.28,246.3,31.4,138.03,31.88,24.66,36.50,0.93,-26.32,6.57,-46,39,-933,24.0,18.9,-1.1,24.1,1.9,-28.8,5.73,2.52,-27.2,30.3
2012-09-12 02:19:00,0.0,1.9343,0.0009,391.55,0.32,251.4,31.7,138.03,31.88,24.66,36.51,0.94,-26.30,7.06,-46,39,-933,24.0,19.2,-0.9,24.2,1.9,-28.7,5.73,2.52,-27.2,30.2
2012-09-12 02:20:00,0.0,1.9337,0.0010,391.54,0.32,250.9,33.0,138.03,31.88,24.66,36.51,0.95,-26.29,7.53,-46,39,-934,24.1,18.6,-1.3,24.2,1.9,-28.9,5.73,2.51,-27.2,30.3